Year,Month,Day,Hour,Minute,Value (Times are PST for temperature in C)
2007,08,14,00,00,12.30
2007,08,14,00,01,12.30
2007,08,14,00,02,12.30
2007,08,14,00,03,12.30
2007,08,14,00,04,12.30
2007,08,14,00,05,12.30
2007,08,14,00,06,12.30
2007,08,14,00,07,12.30
2007,08,14,00,08,12.30
2007,08,14,00,09,12.30
2007,08,14,00,10,12.30
2007,08,14,00,11,12.30
2007,08,14,00,12,12.30
2007,08,14,00,13,12.30
2007,08,14,00,14,12.30
2007,08,14,00,15,12.30
2007,08,14,00,16,12.30
2007,08,14,00,17,12.30
2007,08,14,00,18,12.20
2007,08,14,00,19,12.30
2007,08,14,00,20,12.30
2007,08,14,00,21,12.20
2007,08,14,00,22,12.20
2007,08,14,00,23,12.20
2007,08,14,00,24,12.20
2007,08,14,00,25,12.20
2007,08,14,00,26,12.20
2007,08,14,00,27,12.20
2007,08,14,00,28,12.20
2007,08,14,00,29,12.20
2007,08,14,00,30,12.20
2007,08,14,00,31,12.20
2007,08,14,00,32,12.20
2007,08,14,00,33,12.20
2007,08,14,00,34,12.20
2007,08,14,00,35,12.20
2007,08,14,00,36,12.20
2007,08,14,00,37,12.20
2007,08,14,00,38,12.10
2007,08,14,00,39,12.10
2007,08,14,00,40,12.10
2007,08,14,00,41,12.10
2007,08,14,00,42,12.10
2007,08,14,00,43,12.10
2007,08,14,00,44,12.10
2007,08,14,00,45,12.10
2007,08,14,00,46,12.10
2007,08,14,00,47,12.10
2007,08,14,00,48,12.10
2007,08,14,00,49,12.10
2007,08,14,00,50,12.10
2007,08,14,00,51,12.10
2007,08,14,00,52,12.10
2007,08,14,00,53,12.10
2007,08,14,00,54,12.10
2007,08,14,00,55,12.10
2007,08,14,00,56,12.10
2007,08,14,00,57,12.10
2007,08,14,00,58,12.10
2007,08,14,00,59,12.10
2007,08,14,01,00,12.10
2007,08,14,01,01,12.10
2007,08,14,01,02,12.00
2007,08,14,01,03,12.00
2007,08,14,01,04,12.00
2007,08,14,01,05,12.00
2007,08,14,01,06,12.00
2007,08,14,01,07,12.00
2007,08,14,01,08,11.90
2007,08,14,01,09,11.90
2007,08,14,01,10,11.90
2007,08,14,01,11,11.90
2007,08,14,01,12,11.90
2007,08,14,01,13,11.90
2007,08,14,01,14,11.90
2007,08,14,01,15,11.90
2007,08,14,01,16,11.90
2007,08,14,01,17,11.90
2007,08,14,01,18,11.90
2007,08,14,01,19,11.90
2007,08,14,01,20,11.80
2007,08,14,01,21,11.90
2007,08,14,01,22,11.80
2007,08,14,01,23,11.80
2007,08,14,01,24,11.80
2007,08,14,01,25,11.80
2007,08,14,01,26,11.80
2007,08,14,01,27,11.80
2007,08,14,01,28,11.80
2007,08,14,01,29,11.80
2007,08,14,01,30,11.80
2007,08,14,01,31,11.80
2007,08,14,01,32,11.80
2007,08,14,01,33,11.80
2007,08,14,01,34,11.80
2007,08,14,01,35,11.80
2007,08,14,01,36,11.80
2007,08,14,01,37,11.80
2007,08,14,01,38,11.80
2007,08,14,01,39,11.80
2007,08,14,01,40,11.70
2007,08,14,01,41,11.70
2007,08,14,01,42,11.70
2007,08,14,01,43,11.70
2007,08,14,01,44,11.70
2007,08,14,01,45,11.70
2007,08,14,01,46,11.70
2007,08,14,01,47,11.70
2007,08,14,01,48,11.70
2007,08,14,01,49,11.70
2007,08,14,01,50,11.70
2007,08,14,01,51,11.60
2007,08,14,01,52,11.60
2007,08,14,01,53,11.60
2007,08,14,01,54,11.60
2007,08,14,01,55,11.60
2007,08,14,01,56,11.60
2007,08,14,01,57,11.60
2007,08,14,01,58,11.60
2007,08,14,01,59,11.60
2007,08,14,02,00,11.50
2007,08,14,02,01,11.50
2007,08,14,02,02,11.50
2007,08,14,02,03,11.50
2007,08,14,02,04,11.50
2007,08,14,02,05,11.50
2007,08,14,02,06,11.50
2007,08,14,02,07,11.50
2007,08,14,02,08,11.50
2007,08,14,02,09,11.40
2007,08,14,02,10,11.40
2007,08,14,02,11,11.40
2007,08,14,02,12,11.40
2007,08,14,02,13,11.40
2007,08,14,02,14,11.40
2007,08,14,02,15,11.40
2007,08,14,02,16,11.40
2007,08,14,02,17,11.40
2007,08,14,02,18,11.40
2007,08,14,02,19,11.40
2007,08,14,02,20,11.40
2007,08,14,02,21,11.40
2007,08,14,02,22,11.40
2007,08,14,02,23,11.40
2007,08,14,02,24,11.30
2007,08,14,02,25,11.30
2007,08,14,02,26,11.30
2007,08,14,02,27,11.30
2007,08,14,02,28,11.30
2007,08,14,02,29,11.30
2007,08,14,02,30,11.30
2007,08,14,02,31,11.30
2007,08,14,02,32,11.30
2007,08,14,02,33,11.30
2007,08,14,02,34,11.30
2007,08,14,02,35,11.30
2007,08,14,02,36,11.30
2007,08,14,02,37,11.30
2007,08,14,02,38,11.30
2007,08,14,02,39,11.30
2007,08,14,02,40,11.30
2007,08,14,02,41,11.30
2007,08,14,02,42,11.30
2007,08,14,02,43,11.30
2007,08,14,02,44,11.30
2007,08,14,02,45,11.30
2007,08,14,02,46,11.30
2007,08,14,02,47,11.20
2007,08,14,02,48,11.20
2007,08,14,02,49,11.20
2007,08,14,02,50,11.20
2007,08,14,02,51,11.20
2007,08,14,02,52,11.20
2007,08,14,02,53,11.20
2007,08,14,02,54,11.20
2007,08,14,02,55,11.20
2007,08,14,02,56,11.20
2007,08,14,02,57,11.20
2007,08,14,02,58,11.20
2007,08,14,02,59,11.20
2007,08,14,03,00,11.20
2007,08,14,03,01,11.20
2007,08,14,03,02,11.20
2007,08,14,03,03,11.20
2007,08,14,03,04,11.20
2007,08,14,03,05,11.20
2007,08,14,03,06,11.20
2007,08,14,03,07,11.20
2007,08,14,03,08,11.20
2007,08,14,03,09,11.20
2007,08,14,03,10,11.20
2007,08,14,03,11,11.20
2007,08,14,03,12,11.20
2007,08,14,03,13,11.20
2007,08,14,03,14,11.20
2007,08,14,03,15,11.20
2007,08,14,03,16,11.10
2007,08,14,03,17,11.10
2007,08,14,03,18,11.10
2007,08,14,03,19,11.10
2007,08,14,03,20,11.10
2007,08,14,03,21,11.10
2007,08,14,03,22,11.10
2007,08,14,03,23,11.10
2007,08,14,03,24,11.10
2007,08,14,03,25,11.10
2007,08,14,03,26,11.00
2007,08,14,03,27,11.00
2007,08,14,03,28,11.00
2007,08,14,03,29,11.00
2007,08,14,03,30,11.00
2007,08,14,03,31,11.00
2007,08,14,03,32,11.00
2007,08,14,03,33,11.00
2007,08,14,03,34,11.00
2007,08,14,03,35,10.90
2007,08,14,03,36,10.90
2007,08,14,03,37,10.90
2007,08,14,03,38,10.90
2007,08,14,03,39,10.90
2007,08,14,03,40,10.90
2007,08,14,03,41,10.90
2007,08,14,03,42,10.90
2007,08,14,03,43,10.90
2007,08,14,03,44,10.80
2007,08,14,03,45,10.80
2007,08,14,03,46,10.80
2007,08,14,03,47,10.80
2007,08,14,03,48,10.80
2007,08,14,03,49,10.80
2007,08,14,03,50,10.80
2007,08,14,03,51,10.80
2007,08,14,03,52,10.70
2007,08,14,03,53,10.70
2007,08,14,03,54,10.70
2007,08,14,03,55,10.70
2007,08,14,03,56,10.70
2007,08,14,03,57,10.70
2007,08,14,03,58,10.60
2007,08,14,03,59,10.60
2007,08,14,04,00,10.60
2007,08,14,04,01,10.60
2007,08,14,04,02,10.60
2007,08,14,04,03,10.60
2007,08,14,04,04,10.60
2007,08,14,04,05,10.60
2007,08,14,04,06,10.60
2007,08,14,04,07,10.60
2007,08,14,04,08,10.50
2007,08,14,04,09,10.50
2007,08,14,04,10,10.50
2007,08,14,04,11,10.50
2007,08,14,04,12,10.50
2007,08,14,04,13,10.50
2007,08,14,04,14,10.50
2007,08,14,04,15,10.50
2007,08,14,04,16,10.50
2007,08,14,04,17,10.50
2007,08,14,04,18,10.50
2007,08,14,04,19,10.40
2007,08,14,04,20,10.40
2007,08,14,04,21,10.40
2007,08,14,04,22,10.40
2007,08,14,04,23,10.40
2007,08,14,04,24,10.40
2007,08,14,04,25,10.40
2007,08,14,04,26,10.40
2007,08,14,04,27,10.40
2007,08,14,04,28,10.50
2007,08,14,04,29,10.50
2007,08,14,04,30,10.50
2007,08,14,04,31,10.50
2007,08,14,04,32,10.50
2007,08,14,04,33,10.50
2007,08,14,04,34,10.50
2007,08,14,04,35,10.50
2007,08,14,04,36,10.50
2007,08,14,04,37,10.50
2007,08,14,04,38,10.50
2007,08,14,04,39,10.50
2007,08,14,04,40,10.50
2007,08,14,04,41,10.50
2007,08,14,04,42,10.50
2007,08,14,04,43,10.50
2007,08,14,04,44,10.50
2007,08,14,04,45,10.60
2007,08,14,04,46,10.60
2007,08,14,04,47,10.50
2007,08,14,04,48,10.50
2007,08,14,04,49,10.60
2007,08,14,04,50,10.60
2007,08,14,04,51,10.50
2007,08,14,04,52,10.50
2007,08,14,04,53,10.50
2007,08,14,04,54,10.50
2007,08,14,04,55,10.50
2007,08,14,04,56,10.50
2007,08,14,04,57,10.50
2007,08,14,04,58,10.50
2007,08,14,04,59,10.50
2007,08,14,05,00,10.50
2007,08,14,05,01,10.50
2007,08,14,05,02,10.50
2007,08,14,05,03,10.50
2007,08,14,05,04,10.40
2007,08,14,05,05,10.40
2007,08,14,05,06,10.40
2007,08,14,05,07,10.40
2007,08,14,05,08,10.40
2007,08,14,05,09,10.40
2007,08,14,05,10,10.40
2007,08,14,05,11,10.40
2007,08,14,05,12,10.40
2007,08,14,05,13,10.40
2007,08,14,05,14,10.40
2007,08,14,05,15,10.40
2007,08,14,05,16,10.40
2007,08,14,05,17,10.40
2007,08,14,05,18,10.40
2007,08,14,05,19,10.40
2007,08,14,05,20,10.40
2007,08,14,05,21,10.40
2007,08,14,05,22,10.40
2007,08,14,05,23,10.40
2007,08,14,05,24,10.40
2007,08,14,05,25,10.40
2007,08,14,05,26,10.40
2007,08,14,05,27,10.30
2007,08,14,05,28,10.30
2007,08,14,05,29,10.30
2007,08,14,05,30,10.30
2007,08,14,05,31,10.30
2007,08,14,05,32,10.30
2007,08,14,05,33,10.30
2007,08,14,05,34,10.30
2007,08,14,05,35,10.30
2007,08,14,05,36,10.30
2007,08,14,05,37,10.30
2007,08,14,05,38,10.30
2007,08,14,05,39,10.30
2007,08,14,05,40,10.30
2007,08,14,05,41,10.30
2007,08,14,05,42,10.30
2007,08,14,05,43,10.30
2007,08,14,05,44,10.30
2007,08,14,05,45,10.30
2007,08,14,05,46,10.30
2007,08,14,05,47,10.30
2007,08,14,05,48,10.30
2007,08,14,05,49,10.30
2007,08,14,05,50,10.30
2007,08,14,05,51,10.30
2007,08,14,05,52,10.30
2007,08,14,05,53,10.30
2007,08,14,05,54,10.30
2007,08,14,05,55,10.30
2007,08,14,05,56,10.30
2007,08,14,05,57,10.30
2007,08,14,05,58,10.30
2007,08,14,05,59,10.30
2007,08,14,06,00,10.30
2007,08,14,06,01,10.30
2007,08,14,06,02,10.30
2007,08,14,06,03,10.30
2007,08,14,06,04,10.30
2007,08,14,06,05,10.30
2007,08,14,06,06,10.30
2007,08,14,06,07,10.30
2007,08,14,06,08,10.30
2007,08,14,06,09,10.30
2007,08,14,06,10,10.30
2007,08,14,06,11,10.30
2007,08,14,06,12,10.30
2007,08,14,06,13,10.30
2007,08,14,06,14,10.30
2007,08,14,06,15,10.20
2007,08,14,06,16,10.20
2007,08,14,06,17,10.20
2007,08,14,06,18,10.20
2007,08,14,06,19,10.20
2007,08,14,06,20,10.20
2007,08,14,06,21,10.20
2007,08,14,06,22,10.20
2007,08,14,06,23,10.20
2007,08,14,06,24,10.20
2007,08,14,06,25,10.20
2007,08,14,06,26,10.30
2007,08,14,06,27,10.30
2007,08,14,06,28,10.30
2007,08,14,06,29,10.30
2007,08,14,06,30,10.30
2007,08,14,06,31,10.30
2007,08,14,06,32,10.30
2007,08,14,06,33,10.30
2007,08,14,06,34,10.30
2007,08,14,06,35,10.30
2007,08,14,06,36,10.30
2007,08,14,06,37,10.30
2007,08,14,06,38,10.30
2007,08,14,06,39,10.30
2007,08,14,06,40,10.30
2007,08,14,06,41,10.30
2007,08,14,06,42,10.30
2007,08,14,06,43,10.30
2007,08,14,06,44,10.30
2007,08,14,06,45,10.30
2007,08,14,06,46,10.30
2007,08,14,06,47,10.30
2007,08,14,06,48,10.30
2007,08,14,06,49,10.30
2007,08,14,06,50,10.30
2007,08,14,06,51,10.30
2007,08,14,06,52,10.20
2007,08,14,06,53,10.30
2007,08,14,06,54,10.30
2007,08,14,06,55,10.30
2007,08,14,06,56,10.30
2007,08,14,06,57,10.30
2007,08,14,06,58,10.30
2007,08,14,06,59,10.30
2007,08,14,07,00,10.30
2007,08,14,07,01,10.30
2007,08,14,07,02,10.30
2007,08,14,07,03,10.30
2007,08,14,07,04,10.30
2007,08,14,07,05,10.30
2007,08,14,07,06,10.40
2007,08,14,07,07,10.40
2007,08,14,07,08,10.40
2007,08,14,07,09,10.40
2007,08,14,07,10,10.40
2007,08,14,07,11,10.40
2007,08,14,07,12,10.40
2007,08,14,07,13,10.40
2007,08,14,07,14,10.40
2007,08,14,07,15,10.40
2007,08,14,07,16,10.40
2007,08,14,07,17,10.40
2007,08,14,07,18,10.50
2007,08,14,07,19,10.50
2007,08,14,07,20,10.50
2007,08,14,07,21,10.50
2007,08,14,07,22,10.60
2007,08,14,07,23,10.60
2007,08,14,07,24,10.60
2007,08,14,07,25,10.60
2007,08,14,07,26,10.60
2007,08,14,07,27,10.70
2007,08,14,07,28,10.70
2007,08,14,07,29,10.70
2007,08,14,07,30,10.70
2007,08,14,07,31,10.70
2007,08,14,07,32,10.80
2007,08,14,07,33,10.80
2007,08,14,07,34,10.80
2007,08,14,07,35,10.80
2007,08,14,07,36,10.80
2007,08,14,07,37,10.90
2007,08,14,07,38,10.90
2007,08,14,07,39,10.90
2007,08,14,07,40,11.00
2007,08,14,07,41,11.00
2007,08,14,07,42,11.10
2007,08,14,07,43,11.10
2007,08,14,07,44,11.10
2007,08,14,07,45,11.20
2007,08,14,07,46,11.20
2007,08,14,07,47,11.20
2007,08,14,07,48,11.20
2007,08,14,07,49,11.20
2007,08,14,07,50,11.30
2007,08,14,07,51,11.30
2007,08,14,07,52,11.40
2007,08,14,07,53,11.40
2007,08,14,07,54,11.40
2007,08,14,07,55,11.50
2007,08,14,07,56,11.60
2007,08,14,07,57,11.60
2007,08,14,07,58,11.60
2007,08,14,07,59,11.70
2007,08,14,08,00,11.70
2007,08,14,08,01,11.80
2007,08,14,08,02,11.80
2007,08,14,08,03,11.80
2007,08,14,08,04,11.90
2007,08,14,08,05,11.90
2007,08,14,08,06,12.00
2007,08,14,08,07,12.10
2007,08,14,08,08,12.10
2007,08,14,08,09,12.20
2007,08,14,08,10,12.30
2007,08,14,08,11,12.40
2007,08,14,08,12,12.50
2007,08,14,08,13,12.60
2007,08,14,08,14,12.70
2007,08,14,08,15,12.80
2007,08,14,08,16,12.90
2007,08,14,08,17,13.00
2007,08,14,08,18,13.00
2007,08,14,08,19,13.20
2007,08,14,08,20,13.20
2007,08,14,08,21,13.30
2007,08,14,08,22,13.50
2007,08,14,08,23,13.60
2007,08,14,08,24,13.70
2007,08,14,08,25,13.90
2007,08,14,08,26,14.00
2007,08,14,08,27,14.20
2007,08,14,08,28,14.30
2007,08,14,08,29,14.40
2007,08,14,08,30,14.60
2007,08,14,08,31,14.70
2007,08,14,08,32,14.90
2007,08,14,08,33,15.00
2007,08,14,08,34,15.10
2007,08,14,08,35,15.20
2007,08,14,08,36,15.40
2007,08,14,08,37,15.40
2007,08,14,08,38,15.50
2007,08,14,08,39,15.60
2007,08,14,08,40,15.70
2007,08,14,08,41,15.90
2007,08,14,08,42,16.00
2007,08,14,08,43,16.20
2007,08,14,08,44,16.30
2007,08,14,08,45,16.40
2007,08,14,08,46,16.50
2007,08,14,08,47,16.60
2007,08,14,08,48,16.70
2007,08,14,08,49,16.70
2007,08,14,08,50,16.80
2007,08,14,08,51,16.80
2007,08,14,08,52,16.90
2007,08,14,08,53,17.00
2007,08,14,08,54,17.10
2007,08,14,08,55,17.20
2007,08,14,08,56,17.30
2007,08,14,08,57,17.40
2007,08,14,08,58,17.40
2007,08,14,08,59,17.50
2007,08,14,09,00,17.60
2007,08,14,09,01,17.70
2007,08,14,09,02,17.80
2007,08,14,09,03,17.90
2007,08,14,09,04,18.00
2007,08,14,09,05,18.10
2007,08,14,09,06,18.20
2007,08,14,09,07,18.30
2007,08,14,09,08,18.40
2007,08,14,09,09,18.50
2007,08,14,09,10,18.60
2007,08,14,09,11,18.70
2007,08,14,09,12,18.80
2007,08,14,09,13,18.90
2007,08,14,09,14,18.90
2007,08,14,09,15,18.90
2007,08,14,09,16,18.90
2007,08,14,09,17,18.90
2007,08,14,09,18,19.00
2007,08,14,09,19,19.00
2007,08,14,09,20,19.00
2007,08,14,09,21,19.10
2007,08,14,09,22,19.10
2007,08,14,09,23,19.20
2007,08,14,09,24,19.30
2007,08,14,09,25,19.30
2007,08,14,09,26,19.40
2007,08,14,09,27,19.50
2007,08,14,09,28,19.60
2007,08,14,09,29,19.70
2007,08,14,09,30,19.70
2007,08,14,09,31,19.80
2007,08,14,09,32,19.80
2007,08,14,09,33,19.90
2007,08,14,09,34,20.00
2007,08,14,09,35,20.00
2007,08,14,09,36,20.10
2007,08,14,09,37,20.10
2007,08,14,09,38,20.10
2007,08,14,09,39,20.10
2007,08,14,09,40,20.10
2007,08,14,09,41,20.00
2007,08,14,09,42,20.00
2007,08,14,09,43,19.90
2007,08,14,09,44,19.90
2007,08,14,09,45,19.90
2007,08,14,09,46,19.90
2007,08,14,09,47,19.80
2007,08,14,09,48,19.80
2007,08,14,09,49,19.80
2007,08,14,09,50,19.70
2007,08,14,09,51,19.70
2007,08,14,09,52,19.80
2007,08,14,09,53,19.80
2007,08,14,09,54,19.80
2007,08,14,09,55,19.80
2007,08,14,09,56,19.90
2007,08,14,09,57,19.80
2007,08,14,09,58,19.80
2007,08,14,09,59,19.80
2007,08,14,10,00,19.80
2007,08,14,10,01,19.80
2007,08,14,10,02,19.80
2007,08,14,10,03,19.80
2007,08,14,10,04,19.90
2007,08,14,10,05,19.90
2007,08,14,10,06,19.90
2007,08,14,10,07,20.00
2007,08,14,10,08,20.00
2007,08,14,10,09,20.00
2007,08,14,10,10,20.10
2007,08,14,10,11,20.10
2007,08,14,10,12,20.10
2007,08,14,10,13,20.10
2007,08,14,10,14,20.10
2007,08,14,10,15,20.10
2007,08,14,10,16,20.10
2007,08,14,10,17,20.10
2007,08,14,10,18,20.10
2007,08,14,10,19,20.10
2007,08,14,10,20,20.10
2007,08,14,10,21,20.10
2007,08,14,10,22,20.10
2007,08,14,10,23,20.10
2007,08,14,10,24,20.10
2007,08,14,10,25,20.10
2007,08,14,10,26,20.10
2007,08,14,10,27,20.10
2007,08,14,10,28,20.20
2007,08,14,10,29,20.20
2007,08,14,10,30,20.30
2007,08,14,10,31,20.30
2007,08,14,10,32,20.30
2007,08,14,10,33,20.30
2007,08,14,10,34,20.40
2007,08,14,10,35,20.40
2007,08,14,10,36,20.40
2007,08,14,10,37,20.50
2007,08,14,10,38,20.50
2007,08,14,10,39,20.50
2007,08,14,10,40,20.50
2007,08,14,10,41,20.50
2007,08,14,10,42,20.50
2007,08,14,10,43,20.40
2007,08,14,10,44,20.40
2007,08,14,10,45,20.40
2007,08,14,10,46,20.50
2007,08,14,10,47,20.50
2007,08,14,10,48,20.60
2007,08,14,10,49,20.60
2007,08,14,10,50,20.60
2007,08,14,10,51,20.60
2007,08,14,10,52,20.70
2007,08,14,10,53,20.70
2007,08,14,10,54,20.70
2007,08,14,10,55,20.70
2007,08,14,10,56,20.70
2007,08,14,10,57,20.80
2007,08,14,10,58,20.80
2007,08,14,10,59,20.80
2007,08,14,11,00,20.70
2007,08,14,11,01,20.70
2007,08,14,11,02,20.60
2007,08,14,11,03,20.60
2007,08,14,11,04,20.60
2007,08,14,11,05,20.60
2007,08,14,11,06,20.60
2007,08,14,11,07,20.60
2007,08,14,11,08,20.60
2007,08,14,11,09,20.60
2007,08,14,11,10,20.60
2007,08,14,11,11,20.70
2007,08,14,11,12,20.70
2007,08,14,11,13,20.70
2007,08,14,11,14,20.70
2007,08,14,11,15,20.80
2007,08,14,11,16,20.80
2007,08,14,11,17,20.80
2007,08,14,11,18,20.90
2007,08,14,11,19,21.00
2007,08,14,11,20,21.10
2007,08,14,11,21,21.10
2007,08,14,11,22,21.20
2007,08,14,11,23,21.20
2007,08,14,11,24,21.20
2007,08,14,11,25,21.20
2007,08,14,11,26,21.20
2007,08,14,11,27,21.20
2007,08,14,11,28,21.20
2007,08,14,11,29,21.20
2007,08,14,11,30,21.30
2007,08,14,11,31,21.30
2007,08,14,11,32,21.30
2007,08,14,11,33,21.40
2007,08,14,11,34,21.40
2007,08,14,11,35,21.50
2007,08,14,11,36,21.50
2007,08,14,11,37,21.50
2007,08,14,11,38,21.50
2007,08,14,11,39,21.50
2007,08,14,11,40,21.50
2007,08,14,11,41,21.60
2007,08,14,11,42,21.60
2007,08,14,11,43,21.70
2007,08,14,11,44,21.80
2007,08,14,11,45,21.80
2007,08,14,11,46,21.80
2007,08,14,11,47,21.80
2007,08,14,11,48,21.90
2007,08,14,11,49,22.00
2007,08,14,11,50,22.10
2007,08,14,11,51,22.20
2007,08,14,11,52,22.30
2007,08,14,11,53,22.30
2007,08,14,11,54,22.40
2007,08,14,11,55,22.40
2007,08,14,11,56,22.50
2007,08,14,11,57,22.50
2007,08,14,11,58,22.60
2007,08,14,11,59,22.70
2007,08,14,12,00,22.70
2007,08,14,12,01,22.80
2007,08,14,12,02,22.80
2007,08,14,12,03,22.80
2007,08,14,12,04,22.80
2007,08,14,12,05,22.80
2007,08,14,12,06,22.80
2007,08,14,12,07,22.90
2007,08,14,12,08,22.90
2007,08,14,12,09,22.90
2007,08,14,12,10,22.80
2007,08,14,12,11,22.80
2007,08,14,12,12,22.80
2007,08,14,12,13,22.80
2007,08,14,12,14,22.90
2007,08,14,12,15,22.90
2007,08,14,12,16,22.90
2007,08,14,12,17,22.90
2007,08,14,12,18,23.00
2007,08,14,12,19,23.10
2007,08,14,12,20,23.20
2007,08,14,12,21,23.20
2007,08,14,12,22,23.30
2007,08,14,12,23,23.30
2007,08,14,12,24,23.20
2007,08,14,12,25,23.20
2007,08,14,12,26,23.10
2007,08,14,12,27,23.20
2007,08,14,12,28,23.10
2007,08,14,12,29,23.10
2007,08,14,12,30,23.10
2007,08,14,12,31,23.10
2007,08,14,12,32,23.20
2007,08,14,12,33,23.30
2007,08,14,12,34,23.20
2007,08,14,12,35,23.20
2007,08,14,12,36,23.30
2007,08,14,12,37,23.30
2007,08,14,12,38,23.40
2007,08,14,12,39,23.40
2007,08,14,12,40,23.40
2007,08,14,12,41,23.40
2007,08,14,12,42,23.40
2007,08,14,12,43,23.40
2007,08,14,12,44,23.40
2007,08,14,12,45,23.40
2007,08,14,12,46,23.50
2007,08,14,12,47,23.40
2007,08,14,12,48,23.40
2007,08,14,12,49,23.40
2007,08,14,12,50,23.40
2007,08,14,12,51,23.40
2007,08,14,12,52,23.40
2007,08,14,12,53,23.40
2007,08,14,12,54,23.40
2007,08,14,12,55,23.50
2007,08,14,12,56,23.60
2007,08,14,12,57,23.60
2007,08,14,12,58,23.60
2007,08,14,12,59,23.60
2007,08,14,13,00,23.70
2007,08,14,13,01,23.70
2007,08,14,13,02,23.70
2007,08,14,13,03,23.80
2007,08,14,13,04,23.80
2007,08,14,13,05,23.80
2007,08,14,13,06,23.80
2007,08,14,13,07,23.70
2007,08,14,13,08,23.60
2007,08,14,13,09,23.60
2007,08,14,13,10,23.60
2007,08,14,13,11,23.60
2007,08,14,13,12,23.60
2007,08,14,13,13,23.60
2007,08,14,13,14,23.60
2007,08,14,13,15,23.60
2007,08,14,13,16,23.60
2007,08,14,13,17,23.60
2007,08,14,13,18,23.60
2007,08,14,13,19,23.60
2007,08,14,13,20,23.60
2007,08,14,13,21,23.70
2007,08,14,13,22,23.70
2007,08,14,13,23,23.60
2007,08,14,13,24,23.60
2007,08,14,13,25,23.70
2007,08,14,13,26,23.70
2007,08,14,13,27,23.70
2007,08,14,13,28,23.70
2007,08,14,13,29,23.70
2007,08,14,13,30,23.80
2007,08,14,13,31,23.80
2007,08,14,13,32,23.90
2007,08,14,13,33,24.00
2007,08,14,13,34,24.10
2007,08,14,13,35,24.20
2007,08,14,13,36,24.20
2007,08,14,13,37,24.30
2007,08,14,13,38,24.40
2007,08,14,13,39,24.40
2007,08,14,13,40,24.50
2007,08,14,13,41,24.50
2007,08,14,13,42,24.50
2007,08,14,13,43,24.60
2007,08,14,13,44,24.60
2007,08,14,13,45,24.60
2007,08,14,13,46,24.50
2007,08,14,13,47,24.40
2007,08,14,13,48,24.30
2007,08,14,13,49,24.30
2007,08,14,13,50,24.20
2007,08,14,13,51,24.20
2007,08,14,13,52,24.20
2007,08,14,13,53,24.20
2007,08,14,13,54,24.20
2007,08,14,13,55,24.30
2007,08,14,13,56,24.40
2007,08,14,13,57,24.30
2007,08,14,13,58,24.30
2007,08,14,13,59,24.30
2007,08,14,14,00,24.30
2007,08,14,14,01,24.20
2007,08,14,14,02,24.10
2007,08,14,14,03,24.00
2007,08,14,14,04,24.00
2007,08,14,14,05,24.10
2007,08,14,14,06,24.10
2007,08,14,14,07,24.10
2007,08,14,14,08,24.10
2007,08,14,14,09,24.10
2007,08,14,14,10,24.10
2007,08,14,14,11,24.10
2007,08,14,14,12,24.00
2007,08,14,14,13,24.10
2007,08,14,14,14,24.10
2007,08,14,14,15,24.00
2007,08,14,14,16,23.90
2007,08,14,14,17,24.00
2007,08,14,14,18,24.00
2007,08,14,14,19,24.10
2007,08,14,14,20,24.10
2007,08,14,14,21,24.20
2007,08,14,14,22,24.20
2007,08,14,14,23,24.20
2007,08,14,14,24,24.20
2007,08,14,14,25,24.20
2007,08,14,14,26,24.20
2007,08,14,14,27,24.10
2007,08,14,14,28,24.10
2007,08,14,14,29,24.10
2007,08,14,14,30,24.20
2007,08,14,14,31,24.20
2007,08,14,14,32,24.30
2007,08,14,14,33,24.20
2007,08,14,14,34,24.20
2007,08,14,14,35,24.10
2007,08,14,14,36,24.20
2007,08,14,14,37,24.20
2007,08,14,14,38,24.20
2007,08,14,14,39,24.30
2007,08,14,14,40,24.30
2007,08,14,14,41,24.40
2007,08,14,14,42,24.40
2007,08,14,14,43,24.40
2007,08,14,14,44,24.40
2007,08,14,14,45,24.50
2007,08,14,14,46,24.50
2007,08,14,14,47,24.60
2007,08,14,14,48,24.70
2007,08,14,14,49,24.70
2007,08,14,14,50,24.70
2007,08,14,14,51,24.80
2007,08,14,14,52,24.80
2007,08,14,14,53,24.80
2007,08,14,14,54,24.80
2007,08,14,14,55,24.70
2007,08,14,14,56,24.70
2007,08,14,14,57,24.60
2007,08,14,14,58,24.50
2007,08,14,14,59,24.40
2007,08,14,15,00,24.30
2007,08,14,15,01,24.20
2007,08,14,15,02,24.20
2007,08,14,15,03,24.20
2007,08,14,15,04,24.20
2007,08,14,15,05,24.20
2007,08,14,15,06,24.20
2007,08,14,15,07,24.20
2007,08,14,15,08,24.30
2007,08,14,15,09,24.30
2007,08,14,15,10,24.30
2007,08,14,15,11,24.40
2007,08,14,15,12,24.40
2007,08,14,15,13,24.50
2007,08,14,15,14,24.60
2007,08,14,15,15,24.60
2007,08,14,15,16,24.60
2007,08,14,15,17,24.60
2007,08,14,15,18,24.70
2007,08,14,15,19,24.60
2007,08,14,15,20,24.70
2007,08,14,15,21,24.70
2007,08,14,15,22,24.70
2007,08,14,15,23,24.60
2007,08,14,15,24,24.60
2007,08,14,15,25,24.50
2007,08,14,15,26,24.40
2007,08,14,15,27,24.40
2007,08,14,15,28,24.30
2007,08,14,15,29,24.20
2007,08,14,15,30,24.10
2007,08,14,15,31,24.00
2007,08,14,15,32,24.00
2007,08,14,15,33,23.90
2007,08,14,15,34,23.90
2007,08,14,15,35,23.90
2007,08,14,15,36,23.90
2007,08,14,15,37,23.90
2007,08,14,15,38,24.00
2007,08,14,15,39,24.00
2007,08,14,15,40,24.10
2007,08,14,15,41,24.10
2007,08,14,15,42,24.10
2007,08,14,15,43,24.00
2007,08,14,15,44,23.90
2007,08,14,15,45,23.90
2007,08,14,15,46,23.80
2007,08,14,15,47,23.80
2007,08,14,15,48,23.80
2007,08,14,15,49,23.80
2007,08,14,15,50,23.80
2007,08,14,15,51,23.80
2007,08,14,15,52,23.90
2007,08,14,15,53,23.90
2007,08,14,15,54,23.90
2007,08,14,15,55,23.90
2007,08,14,15,56,23.90
2007,08,14,15,57,24.00
2007,08,14,15,58,24.00
2007,08,14,15,59,24.00
2007,08,14,16,00,24.00
2007,08,14,16,01,24.00
2007,08,14,16,02,24.00
2007,08,14,16,03,24.00
2007,08,14,16,04,24.10
2007,08,14,16,05,24.00
2007,08,14,16,06,24.00
2007,08,14,16,07,23.90
2007,08,14,16,08,23.80
2007,08,14,16,09,23.80
2007,08,14,16,10,23.80
2007,08,14,16,11,23.70
2007,08,14,16,12,23.70
2007,08,14,16,13,23.70
2007,08,14,16,14,23.70
2007,08,14,16,15,23.70
2007,08,14,16,16,23.70
2007,08,14,16,17,23.70
2007,08,14,16,18,23.70
2007,08,14,16,19,23.70
2007,08,14,16,20,23.70
2007,08,14,16,21,23.70
2007,08,14,16,22,23.70
2007,08,14,16,23,23.70
2007,08,14,16,24,23.70
2007,08,14,16,25,23.70
2007,08,14,16,26,23.80
2007,08,14,16,27,23.80
2007,08,14,16,28,23.80
2007,08,14,16,29,23.80
2007,08,14,16,30,23.80
2007,08,14,16,31,23.80
2007,08,14,16,32,23.80
2007,08,14,16,33,23.80
2007,08,14,16,34,23.80
2007,08,14,16,35,23.80
2007,08,14,16,36,23.80
2007,08,14,16,37,23.80
2007,08,14,16,38,23.80
2007,08,14,16,39,23.80
2007,08,14,16,40,23.80
2007,08,14,16,41,23.80
2007,08,14,16,42,23.80
2007,08,14,16,43,23.80
2007,08,14,16,44,23.80
2007,08,14,16,45,23.80
2007,08,14,16,46,23.80
2007,08,14,16,47,23.80
2007,08,14,16,48,23.80
2007,08,14,16,49,23.70
2007,08,14,16,50,23.70
2007,08,14,16,51,23.70
2007,08,14,16,52,23.70
2007,08,14,16,53,23.70
2007,08,14,16,54,23.70
2007,08,14,16,55,23.70
2007,08,14,16,56,23.60
2007,08,14,16,57,23.60
2007,08,14,16,58,23.50
2007,08,14,16,59,23.50
2007,08,14,17,00,23.50
2007,08,14,17,01,23.40
2007,08,14,17,02,23.40
2007,08,14,17,03,23.50
2007,08,14,17,04,23.50
2007,08,14,17,05,23.50
2007,08,14,17,06,23.60
2007,08,14,17,07,23.60
2007,08,14,17,08,23.60
2007,08,14,17,09,23.70
2007,08,14,17,10,23.70
2007,08,14,17,11,23.70
2007,08,14,17,12,23.70
2007,08,14,17,13,23.70
2007,08,14,17,14,23.70
2007,08,14,17,15,23.70
2007,08,14,17,16,23.70
2007,08,14,17,17,23.70
2007,08,14,17,18,23.70
2007,08,14,17,19,23.70